Zurück zum Katalog

FENGYUN 1C DEB

AktivSSO
NORAD 31985·DEBRIS·🇨🇳 China

Gestartet May 10, 1999 von Taiyuan Satellite Launch Center

Loading…

Nächste Überflüge (nächste 24 Stunden)

TLE

AlterndSource: Space-Track

Epoche: Sep 9, 2026, 11:08 UTC

1 31985U 99025CPN 26252.46415277  .00000294  00000-0  13090-3 0  9995
2 31985  98.1909 140.6141 0150947 170.8394 189.5596 14.23324760994613

Verfolge FENGYUN 1C DEB in Echtzeit mit AllMySat

Download on the App Store